Wind_Speed
15 15 14 13 13 12 11 10 10 9 9 10 9 9 10 11 12 12 11 11 12 12 11 8 7 8 8 8 8 9 8 6 6 7 7 7 7 6 6 7 7 7 7 7
16 15 15 15 14 13 12 11 11 10 11 12 12 11 11 12 13 13 12 11 11 12 12 12 10 9 9 10 10 10 9 7 7 8 8 8 9 8 7 7 8 9 8 8
15 15 16 16 14 13 13 13 12 12 13 14 15 14 13 13 13 13 11 10 10 11 12 13 11 11 11 11 11 11 9 9 8 9 9 10 10 9 9 9 9 9 9 9
15 16 17 17 16 16 15 14 15 15 15 14 14 14 13 14 14 13 12 11 11 12 12 12 12 13 12 12 12 11 10 10 10 10 10 9 9 10 10 10 9 10 10 10
14 16 17 18 18 18 16 16 16 16 16 15 15 17 15 16 15 14 14 13 12 12 12 12 13 13 13 13 12 11 11 11 11 10 10 10 10 10 10 10 10 10 11 11
15 16 17 17 17 18 17 17 17 17 18 18 17 18 17 17 15 14 13 13 14 13 13 13 13 14 13 13 12 11 11 12 12 11 12 10 10 10 10 11 11 11 11 11
17 17 17 17 17 18 18 19 19 18 18 18 17 19 19 17 16 15 14 15 15 15 15 15 15 15 14 14 12 11 12 12 12 12 12 11 11 11 11 12 13 13 13 12
18 18 16 16 16 17 18 18 19 20 19 18 18 19 18 17 17 15 15 16 16 16 15 15 14 14 15 15 14 14 13 13 13 13 13 12 12 12 13 13 13 14 14 14
18 18 17 17 17 18 17 18 19 21 20 19 20 19 18 17 17 16 16 17 16 15 15 13 12 13 14 15 15 15 14 14 15 14 14 14 14 14 14 15 15 15 15 15
20 21 19 17 18 19 18 19 19 21 21 21 21 19 18 16 17 17 18 16 14 14 15 14 14 15 16 15 15 15 15 15 16 16 16 16 16 16 16 16 16 15 15 15
23 23 20 20 20 19 20 21 21 21 21 22 22 20 17 16 17 17 17 16 15 15 15 15 15 16 16 16 16 17 17 17 16 17 17 18 18 17 17 17 17 16 17 16
23 23 22 23 23 23 22 21 22 22 23 23 23 21 18 17 17 17 17 16 17 17 17 16 17 17 17 17 17 17 17 16 16 17 18 19 19 19 19 18 19 19 19 18
24 24 23 23 25 25 24 23 23 24 24 25 24 23 20 20 19 19 19 18 18 18 18 18 18 18 18 17 18 18 19 18 17 18 19 19 19 19 19 19 20 20 20 21
26 26 26 26 25 26 25 25 25 25 26 26 26 24 21 20 19 20 20 19 19 19 19 19 20 20 20 20 20 20 20 20 20 20 20 20 21 20 19 19 20 20 21 21
28 28 28 27 26 27 28 26 26 26 27 28 27 25 22 22 21 21 21 22 21 22 22 23 22 22 22 22 22 22 22 22 22 22 22 21 21 21 21 21 22 22 23 23
29 30 29 28 28 29 29 28 28 28 28 29 28 27 24 23 23 23 23 24 24 25 25 25 24 24 24 24 23 23 24 24 23 23 23 23 23 22 22 22 23 23 23 24
29 29 29 28 28 28 29 28 29 29 29 29 29 28 26 25 25 26 25 25 26 27 26 26 26 26 25 24 24 24 24 25 25 24 24 25 25 23 23 23 24 24 24 25
27 28 27 26 26 29 27 27 28 29 29 29 29 29 29 28 27 27 27 27 27 28 27 26 26 25 25 25 25 25 25 25 25 25 26 26 25 24 24 25 25 26 26 26
27 27 27 26 27 28 27 26 27 28 28 28 29 29 30 29 27 28 28 28 27 27 26 26 26 26 26 26 26 26 26 26 25 25 26 27 26 25 25 25 26 26 26 26
27 27 27 28 28 29 27 27 27 28 29 28 29 29 29 29 28 27 27 27 27 27 27 26 26 26 26 26 26 26 27 26 25 26 27 27 27 27 27 27 26 26 26 26
26 27 27 28 28 28 27 27 27 29 29 28 29 29 29 29 28 28 28 28 28 28 28 27 27 27 28 28 28 27 27 27 27 27 26 26 26 27 27 28 27 26 27 28
26 26 27 28 28 28 26 27 28 29 29 29 30 30 29 30 29 29 28 29 29 29 30 29 29 29 29 29 29 28 27 27 27 27 27 26 26 26 27 28 27 27 27 27
27 27 28 29 28 28 28 28 29 29 29 30 29 28 28 29 29 29 29 29 30 31 31 31 31 30 29 29 29 28 26 27 27 27 27 27 27 27 28 28 27 27 26 26
28 29 29 29 29 28 28 28 28 29 29 29 29 28 28 28 29 30 30 30 31 31 31 32 31 30 29 29 29 29 29 28 28 28 28 28 29 28 28 29 28 27 26 26
29 29 29 30 30 29 29 28 28 29 29 29 29 29 29 30 30 30 31 31 32 32 32 31 30 31 31 31 30 30 30 29 29 29 28 29 29 29 29 29 28 28 27 27
28 29 29 29 29 29 29 29 29 29 29 29 30 30 31 31 31 31 32 33 32 32 31 32 31 32 32 32 31 31 31 29 29 29 29 29 29 29 29 28 27 27 27 26
Wind_Direction
217 218 217 219 222 222 225 234 239 237 244 252 258 262 268 278 277 282 291 297 299 308 308 302 300 299 299 302 308 309 305 291 291 292 288 283 282 282 284 287 292 295 295 302
217 215 215 218 225 227 228 235 241 243 249 254 258 262 262 267 274 277 279 289 297 304 309 306 300 293 295 297 301 305 296 285 293 290 285 281 278 275 276 279 284 290 293 294
220 218 220 224 229 230 232 235 238 247 256 258 257 257 258 263 270 277 278 290 297 300 302 300 296 292 293 294 295 299 301 291 294 292 286 280 277 278 276 278 276 279 283 288
222 220 223 227 228 230 235 236 243 250 253 253 256 259 260 260 264 272 278 287 296 298 298 296 292 287 287 289 292 296 297 297 295 290 285 279 277 276 277 277 275 277 280 283
228 224 227 231 231 234 238 242 247 249 252 254 254 259 259 261 267 273 278 283 292 294 294 295 287 280 283 287 290 290 290 293 294 289 281 278 280 276 275 279 280 278 277 279
225 224 229 231 232 235 238 240 244 248 251 252 252 257 258 261 269 273 272 278 284 289 293 291 280 276 280 283 287 285 288 288 288 286 282 282 282 277 275 279 280 278 278 280
226 226 230 231 231 234 237 240 243 246 251 254 252 256 260 259 264 267 268 276 281 285 287 288 284 276 276 276 281 282 284 284 282 283 283 286 283 279 279 280 280 279 278 276
233 229 231 234 235 236 240 245 249 252 254 256 257 259 260 256 260 263 267 272 277 280 284 286 285 282 281 278 277 285 283 281 280 281 280 282 285 279 279 279 279 278 277 274
235 232 232 233 234 238 247 250 253 256 257 257 258 257 260 256 262 262 267 272 275 279 283 282 284 287 288 283 281 283 287 284 282 281 279 279 281 279 279 280 278 277 276 272
235 237 235 236 238 242 250 252 252 253 253 258 260 261 264 267 262 265 272 271 269 277 281 284 282 287 286 282 281 280 285 283 282 280 277 279 279 277 278 279 277 274 274 271
234 238 238 240 242 245 246 247 247 248 251 256 261 263 268 266 262 265 270 269 271 273 278 283 285 286 286 281 279 280 283 283 280 279 278 278 279 277 276 275 273 271 271 270
235 239 238 240 243 244 243 244 246 248 253 256 261 263 263 265 266 267 269 271 275 273 276 281 284 285 285 283 280 278 280 281 281 279 279 278 277 275 274 272 269 270 270 270
237 240 242 240 240 241 241 241 244 248 251 254 258 261 262 267 269 268 269 271 272 272 276 279 281 283 284 284 282 279 277 277 279 279 280 278 276 275 272 268 267 270 271 272
242 244 245 243 242 242 242 243 243 246 250 253 256 260 260 263 267 266 267 268 268 271 275 276 278 281 282 282 282 283 280 276 276 278 278 277 275 276 272 270 273 271 272 274
243 246 246 245 242 242 242 243 244 247 251 255 258 261 264 266 269 269 266 268 269 271 273 276 277 278 280 281 282 282 282 280 278 278 278 278 276 274 271 270 274 272 272 273
242 244 246 245 243 242 242 242 244 246 251 254 255 259 261 263 265 268 269 270 271 272 273 275 276 275 276 277 278 281 282 281 279 277 277 277 276 274 271 272 275 276 275 274
242 244 246 247 245 245 244 244 244 247 249 252 254 256 259 261 264 266 267 270 271 272 275 275 274 274 274 274 276 277 278 279 280 279 279 279 277 274 272 272 274 276 275 275
244 244 247 246 245 245 246 246 247 249 251 253 255 256 259 264 266 267 267 269 272 275 276 275 274 273 276 277 277 277 277 278 279 280 278 279 277 274 274 274 274 276 276 276
244 245 246 245 245 246 247 250 251 253 255 255 256 259 261 263 265 267 269 271 274 274 274 274 275 276 276 276 276 276 277 278 279 280 280 280 277 275 274 275 274 276 277 277
244 246 249 250 250 250 250 252 253 255 257 258 259 261 262 262 264 267 268 269 270 271 270 272 274 275 276 275 276 278 278 278 279 280 279 279 277 276 276 276 275 275 276 277
244 247 250 252 254 255 255 256 257 257 260 261 260 262 263 263 264 266 268 269 269 270 269 270 271 274 276 276 277 278 277 278 279 280 279 278 277 277 277 278 278 276 277 279
247 248 249 251 254 255 256 256 256 259 261 263 262 263 264 262 263 265 267 267 268 270 271 271 271 272 274 276 276 276 275 275 276 277 277 276 275 277 278 279 278 277 278 279
249 251 253 255 258 258 258 258 257 259 262 261 262 262 262 261 262 263 265 267 269 270 270 270 270 272 273 274 276 273 274 274 274 274 275 275 275 276 278 278 277 277 278 278
250 253 254 255 258 260 260 260 261 260 261 262 261 261 261 263 264 267 267 267 269 270 270 270 270 271 273 274 275 275 274 273 272 274 274 274 275 276 278 278 276 275 276 277
251 255 255 255 257 259 261 262 264 263 263 263 262 263 265 266 266 267 269 270 271 270 271 269 269 271 272 273 273 274 274 273 272 273 274 274 274 275 277 278 276 276 276 276
254 256 256 257 258 260 263 264 264 265 264 265 266 266 266 265 265 267 270 272 273 272 272 271 271 271 272 272 271 272 274 273 272 273 274 274 274 274 275 276 276 277 277 277
Height
5869 5872 5873 5875 5877 5879 5880 5881 5882 5883 5884 5883 5883 5884 5884 5884 5884 5884 5885 5885 5884 5884 5883 5883 5882 5882 5882 5881 5880 5880 5879 5878 5878 5878 5878 5877 5877 5877 5877 5876 5876 5875 5874 5873
5866 5868 5871 5872 5873 5875 5876 5877 5879 5880 5881 5881 5880 5881 5881 5881 5881 5881 5882 5882 5882 5881 5881 5880 5880 5880 5879 5879 5878 5877 5876 5876 5875 5875 5875 5875 5875 5874 5874 5874 5873 5873 5872 5871
5863 5866 5867 5868 5870 5871 5873 5875 5876 5877 5877 5877 5878 5878 5878 5878 5878 5878 5879 5879 5879 5879 5878 5877 5877 5876 5876 5876 5875 5875 5874 5873 5873 5872 5872 5872 5872 5872 5872 5872 5871 5870 5869 5869
5859 5861 5863 5864 5866 5868 5870 5871 5872 5873 5874 5873 5875 5874 5875 5874 5874 5875 5875 5876 5876 5876 5875 5874 5874 5873 5872 5872 5872 5872 5871 5871 5871 5870 5869 5869 5869 5869 5869 5869 5868 5868 5867 5866
5855 5857 5859 5861 5863 5865 5866 5867 5868 5869 5870 5870 5870 5870 5872 5871 5870 5871 5871 5872 5873 5873 5872 5871 5870 5870 5869 5868 5868 5867 5868 5868 5868 5867 5866 5866 5866 5866 5866 5866 5865 5865 5864 5863
5851 5853 5855 5857 5859 5861 5862 5863 5864 5864 5865 5866 5867 5866 5866 5866 5867 5867 5868 5868 5869 5868 5868 5867 5867 5866 5865 5864 5863 5863 5864 5864 5864 5864 5863 5863 5862 5863 5863 5863 5862 5862 5861 5860
5847 5849 5851 5853 5854 5856 5857 5859 5860 5860 5860 5861 5863 5861 5863 5862 5863 5862 5863 5864 5864 5864 5864 5863 5863 5862 5861 5860 5860 5860 5860 5861 5861 5861 5860 5860 5860 5860 5859 5859 5859 5858 5858 5857
5841 5845 5847 5849 5850 5852 5853 5855 5856 5856 5856 5857 5857 5856 5859 5859 5858 5858 5858 5859 5859 5859 5859 5858 5858 5857 5857 5856 5856 5856 5856 5857 5857 5857 5857 5856 5856 5856 5856 5855 5855 5854 5854 5853
5836 5840 5843 5844 5846 5847 5848 5849 5851 5852 5851 5852 5852 5853 5853 5853 5853 5853 5853 5854 5854 5854 5854 5855 5854 5854 5853 5853 5853 5853 5852 5852 5852 5852 5853 5853 5852 5852 5852 5851 5850 5850 5850 5849
5832 5835 5837 5840 5841 5842 5844 5845 5845 5845 5846 5846 5847 5847 5849 5848 5848 5848 5848 5848 5849 5850 5850 5850 5851 5851 5850 5850 5849 5848 5848 5847 5848 5848 5848 5847 5847 5847 5847 5846 5846 5846 5845 5845
5826 5829 5832 5833 5835 5837 5838 5839 5839 5840 5841 5841 5841 5844 5844 5844 5844 5844 5844 5844 5844 5845 5846 5846 5846 5846 5846 5845 5845 5844 5844 5844 5843 5843 5842 5842 5842 5841 5841 5841 5841 5841 5840 5839
5821 5823 5825 5828 5830 5831 5832 5833 5834 5835 5835 5836 5836 5840 5839 5839 5839 5839 5839 5839 5839 5840 5841 5841 5841 5841 5841 5841 5840 5840 5840 5839 5838 5838 5837 5837 5836 5836 5835 5835 5835 5835 5834 5834
5815 5817 5819 5821 5825 5826 5826 5827 5828 5829 5830 5830 5831 5835 5834 5834 5834 5834 5834 5834 5834 5834 5835 5836 5836 5836 5835 5835 5835 5835 5835 5834 5833 5833 5832 5831 5830 5830 5829 5829 5828 5828 5828 5827
5809 5810 5813 5815 5816 5818 5819 5821 5822 5823 5823 5824 5825 5827 5828 5828 5828 5829 5829 5829 5829 5829 5830 5830 5830 5830 5830 5830 5829 5829 5828 5828 5827 5826 5826 5825 5824 5823 5823 5823 5822 5821 5821 5821
5801 5803 5805 5808 5810 5811 5812 5814 5815 5816 5817 5818 5819 5820 5822 5823 5823 5823 5823 5823 5824 5824 5824 5824 5824 5823 5823 5823 5823 5822 5822 5821 5821 5820 5819 5818 5818 5817 5817 5816 5815 5815 5814 5814
5793 5795 5797 5800 5802 5803 5804 5807 5808 5809 5810 5811 5812 5814 5816 5816 5817 5817 5817 5817 5817 5817 5817 5817 5817 5817 5816 5816 5816 5815 5815 5814 5813 5812 5812 5811 5811 5810 5809 5809 5808 5808 5807 5807
5786 5788 5790 5792 5794 5795 5797 5800 5801 5802 5803 5805 5805 5808 5809 5809 5810 5810 5810 5810 5810 5810 5809 5809 5809 5809 5808 5808 5808 5808 5807 5807 5806 5805 5804 5803 5803 5802 5802 5802 5801 5801 5800 5799
5778 5780 5782 5784 5787 5787 5792 5792 5794 5795 5796 5797 5798 5800 5801 5802 5803 5803 5803 5803 5802 5802 5802 5801 5801 5801 5800 5800 5800 5800 5799 5799 5798 5797 5796 5796 5794 5794 5795 5794 5794 5793 5792 5792
5771 5773 5774 5776 5777 5779 5783 5784 5786 5787 5788 5789 5791 5792 5793 5794 5794 5795 5795 5795 5795 5795 5794 5793 5794 5794 5793 5792 5793 5792 5791 5790 5790 5789 5789 5788 5788 5787 5787 5786 5786 5785 5784 5783
5764 5766 5768 5768 5769 5771 5776 5777 5777 5779 5779 5781 5782 5783 5785 5786 5787 5788 5787 5787 5788 5788 5787 5787 5786 5785 5785 5784 5785 5785 5784 5783 5782 5781 5781 5780 5780 5779 5779 5778 5777 5777 5776 5775
5757 5758 5760 5761 5761 5763 5767 5768 5769 5771 5773 5773 5773 5774 5775 5776 5778 5778 5778 5779 5779 5779 5779 5779 5778 5777 5777 5776 5776 5776 5775 5775 5774 5773 5772 5772 5772 5771 5771 5770 5769 5768 5767 5767
5750 5752 5753 5754 5754 5758 5759 5760 5761 5763 5763 5764 5764 5765 5766 5767 5768 5769 5770 5770 5771 5771 5771 5770 5769 5769 5768 5768 5767 5767 5767 5766 5765 5765 5764 5764 5763 5763 5762 5762 5761 5760 5759 5758
5742 5744 5746 5747 5749 5750 5751 5752 5753 5754 5754 5755 5755 5756 5757 5758 5759 5760 5761 5762 5762 5762 5762 5761 5761 5760 5759 5759 5758 5757 5757 5757 5757 5756 5756 5755 5755 5754 5754 5753 5752 5751 5750 5749
5735 5736 5737 5739 5740 5741 5743 5744 5745 5745 5745 5746 5747 5748 5749 5750 5750 5752 5752 5753 5753 5753 5752 5752 5752 5751 5751 5750 5749 5749 5748 5748 5748 5748 5747 5746 5746 5745 5744 5744 5743 5742 5741 5740
5728 5729 5729 5731 5732 5733 5734 5735 5736 5737 5737 5738 5738 5739 5740 5741 5742 5742 5742 5743 5743 5743 5743 5742 5742 5742 5741 5741 5741 5740 5739 5738 5739 5738 5738 5737 5737 5736 5735 5735 5734 5733 5732 5731
5721 5722 5722 5723 5725 5726 5727 5727 5728 5728 5729 5729 5730 5731 5731 5732 5732 5733 5733 5733 5733 5733 5732 5733 5732 5732 5732 5731 5731 5730 5729 5729 5729 5729 5728 5728 5727 5727 5726 5726 5725 5724 5724 5723